This demonstration page uses our WeatherBlox Daily Observations layout. Learn more.

Hourly Observations for March 6, 2019

Temp ( °F °C ) Dew Point ( °F °C ) Humidity (%) Winds ( mph kmh ) Pressure ( in mb ) Visibility ( mi km ) Precip ( " mm )
12:15 am 00:15 Cloudy 17 -8.2 10 -12.4 72 72 SW 8 13 30.51 1033 10 16.0934 0 0
12:35 am 00:35 Cloudy 18 -7.6 10 -12 71 71 SW 7 11 30.48 1032 10 16.0934 0 0
12:55 am 00:55 Cloudy 19 -7.3 11 -11.6 72 72 SW 9 15 30.48 1032 10 16.0934 0 0
1:15 am 01:15 Cloudy 19 -7.5 11 -11.9 71 71 SW 8 13 30.47 1032 10 16.0934 0 0
1:35 am 01:35 Cloudy 18 -7.7 10 -12 72 72 SW 5 7 30.47 1032 10 16.0934 0 0
1:55 am 01:55 Cloudy 18 -7.8 11 -11.8 73 73 SW 6 9 30.46 1032 10 16.0934 0 0
2:15 am 02:15 Cloudy 17 -8.1 10 -12.1 73 73 SSW 5 7 30.46 1031 10 16.0934 0 0
2:35 am 02:35 Partly Cloudy 16 -8.9 9 -12.6 75 75 SSW 7 11 30.46 1032 10 16.0934 0 0
2:55 am 02:55 Clear 15 -9.4 8 -13.1 75 75 SSW 6 9 30.45 1031 10 16.0934 0 0
3:15 am 03:15 Clear 14 -9.9 8 -13.5 75 75 SSW 5 7 30.44 1031 10 16.0934 0 0
3:35 am 03:35 Clear 14 -10.1 8 -13.5 76 76 SSW 6 9 30.44 1031 10 16.0934 0 0
3:55 am 03:55 Clear 13 -10.8 7 -14 78 78 SSW 5 7 30.44 1031 10 16.0934 0 0
4:15 am 04:15 Clear 11 -11.4 6 -14.5 78 78 S 5 7 30.44 1031 10 16.0934 0 0
4:35 am 04:35 Clear 11 -11.5 6 -14.5 79 79 S 6 9 30.44 1031 10 16.0934 0 0
4:55 am 04:55 Clear 10 -12 5 -15.1 78 78 S 6 9 30.44 1031 10 16.0934 0 0
5:15 am 05:15 Clear 14 -10.2 7 -13.9 75 75 S 8 13 30.42 1030 10 16.0934 0 0
5:35 am 05:35 Clear 14 -10.2 7 -13.9 75 75 S 7 11 30.42 1030 10 16.0934 0 0
5:55 am 05:55 Clear 10 -12.2 5 -15.2 79 79 S 5 7 30.42 1030 10 16.0934 0 0
6:15 am 06:15 Clear 11 -11.7 6 -14.7 79 79 S 3 6 30.4 1030 10 16.0934 0 0
6:35 am 06:35 Clear 10 -12 5 -14.8 80 80 S 6 9 30.4 1029 10 16.0934 0 0
6:55 am 06:55 Clear 12 -11.3 6 -14.6 77 77 SSW 5 7 30.41 1030 10 16.0934 0 0
7:15 am 07:15 Sunny 11 -11.5 6 -14.6 78 78 SSW 3 6 30.41 1030 10 16.0934 0 0
7:35 am 07:35 Sunny 9 -12.8 4 -15.7 79 79 SSE 6 9 30.39 1029 10 16.0934 0 0
7:55 am 07:55 Sunny 9 -12.7 4 -15.6 79 79 Calm 30.4 1030 10 16.0934 0 0
8:15 am 08:15 Sunny 10 -12.5 5 -15.2 80 80 Calm 30.42 1030 10 16.0934 0 0
8:35 am 08:35 Sunny 11 -11.7 5 -14.8 78 78 Calm 30.41 1030 10 16.0934 0 0
8:55 am 08:55 Sunny 13 -10.5 7 -13.9 76 76 SSE 3 6 30.4 1029 10 16.0934 0 0
9:15 am 09:15 Sunny 14 -10 9 -12.8 80 80 SE 7 11 30.39 1029 10 16.0934 0 0
9:35 am 09:35 Mostly Cloudy 17 -8.1 11 -11.6 76 76 SSE 10 17 30.36 1028 10 16.0934 0 0
9:55 am 09:55 Cloudy 19 -7.5 12 -11 76 76 SSE 8 13 30.35 1028 10 16.0934 0 0
10:15 am 10:15 Cloudy 21 -6.1 13 -10.6 71 71 SSE 9 15 30.34 1027 10 16.0934 0 0
10:35 am 10:35 Cloudy 21 -6.1 13 -10.3 72 72 SSE 10 17 30.33 1027 10 16.0934 0 0
10:55 am 10:55 Cloudy 23 -5.2 14 -9.8 70 70 SSE 12 19 30.29 1026 10 16.0934 0 0
11:15 am 11:15 Cloudy 24 -4.3 15 -9.2 69 69 S 8 13 30.3 1026 10 16.0934 0 0
11:35 am 11:35 Cloudy 25 -4.1 15 -9.5 66 66 S 9 15 30.28 1025 10 16.0934 0 0
11:55 am 11:55 Cloudy 25 -4.1 15 -9.5 66 66 S 8 13 30.28 1025 10 16.0934 0 0
12:15 pm 12:15 Cloudy 24 -4.3 15 -9.4 68 68 S 7 11 30.27 1025 10 16.0934 0 0
12:35 pm 12:35 Cloudy 25 -4.1 16 -9.1 69 69 S 7 11 30.27 1025 10 16.0934 0 0
12:55 pm 12:55 Cloudy 25 -4 16 -9.1 68 68 S 8 13 30.26 1025 10 16.0934 0 0
1:15 pm 13:15 Cloudy 25 -3.7 16 -8.7 69 69 SSE 9 15 30.24 1024 10 16.0934 0 0
1:35 pm 13:35 Cloudy 26 -3.5 17 -8.4 69 69 SSE 10 17 30.23 1024 10 16.0934 0 0
1:55 pm 13:55 Cloudy 26 -3.3 18 -7.8 71 71 SSE 13 20 30.2 1023 10 16.0934 0 0
2:15 pm 14:15 Cloudy 27 -2.8 18 -7.6 70 70 S 7 11 30.21 1023 10 16.0934 0 0
2:35 pm 14:35 Cloudy 28 -2.4 19 -7.1 70 70 SSE 9 15 30.21 1023 10 16.0934 0 0
2:55 pm 14:55 Cloudy 27 -2.6 19 -7 72 72 SSE 12 19 30.19 1022 10 16.0934 0 0
3:15 pm 15:15 Cloudy 28 -2.5 20 -6.5 74 74 SSE 7 11 30.19 1022 10 16.0934 0 0
3:35 pm 15:35 Cloudy 28 -2.2 20 -6.5 73 73 SE 8 13 30.19 1022 10 16.0934 0 0
3:55 pm 15:55 Cloudy 28 -2 21 -6.1 74 74 SE 8 13 30.18 1022 10 16.0934 0 0
4:15 pm 16:15 Partly Cloudy 28 -2.5 21 -6.2 76 76 ESE 9 15 30.19 1022 10 16.0934 0 0
4:35 pm 16:35 Sunny 27 -2.8 21 -6.2 78 78 ESE 6 9 30.18 1022 10 16.0934 0 0
4:55 pm 16:55 Sunny 27 -2.7 21 -5.9 79 79 E 10 17 30.17 1022 10 16.0934 0 0
5:15 pm 17:15 Sunny 27 -2.7 22 -5.7 80 80 E 8 13 30.19 1022 10 16.0934 0 0
5:35 pm 17:35 Partly Cloudy 27 -2.7 22 -5.8 79 79 E 7 11 30.2 1023 10 16.0934 0 0
5:55 pm 17:55 Mostly Cloudy 27 -2.7 22 -5.5 81 81 NE 5 7 30.22 1023 10 16.0934 0 0
6:15 pm 18:15 Cloudy 27 -2.8 23 -5.1 84 84 ENE 6 9 30.22 1023 10 16.0934 0 0
6:35 pm 18:35 Cloudy 27 -3 22 -5.5 83 83 E 8 13 30.2 1023 10 16.0934 0 0
6:55 pm 18:55 Mostly Cloudy 26 -3.3 22 -5.6 84 84 ENE 10 17 30.21 1023 10 16.0934 0 0
7:15 pm 19:15 Cloudy 26 -3.5 22 -5.3 88 88 ENE 9 15 30.22 1023 10 16.0934 0 0
7:35 pm 19:35 Cloudy 26 -3.3 23 -5.2 87 87 ENE 13 20 30.22 1023 10 16.0934 0 0
7:55 pm 19:55 Cloudy 26 -3.5 22 -5.3 88 88 ENE 12 19 30.22 1023 10 16.0934 0 0
8:15 pm 20:15 Cloudy 26 -3.3 22 -5.3 86 86 ENE 10 17 30.22 1023 10 16.0934 0 0
8:35 pm 20:35 Cloudy 26 -3.2 23 -5.1 87 87 ENE 8 13 30.23 1024 10 16.0934 0 0
8:55 pm 20:55 Cloudy 26 -3.2 23 -5 88 88 E 13 20 30.21 1023 10 16.0934 0 0
9:15 pm 21:15 Cloudy 26 -3.1 23 -5 87 87 E 10 17 30.21 1023 10 16.0934 0 0
9:35 pm 21:35 Cloudy 26 -3.1 23 -5 87 87 ENE 10 17 30.21 1023 10 16.0934 0 0
9:55 pm 21:55 Mostly Cloudy 26 -3.2 23 -5 88 88 ENE 12 19 30.21 1023 10 16.0934 0 0
10:15 pm 22:15 Mostly Cloudy 26 -3.3 23 -5 88 88 ENE 10 17 30.22 1023 10 16.0934 0 0
10:35 pm 22:35 Partly Cloudy 26 -3.3 23 -5 88 88 E 14 22 30.21 1023 10 16.0934 0 0
10:55 pm 22:55 Clear 26 -3.5 23 -5.1 89 89 E 13 20 30.19 1022 10 16.0934 0 0
11:15 pm 23:15 Partly Cloudy 26 -3.1 23 -5.2 86 86 E 12 19 30.21 1023 10 16.0934 0 0
11:35 pm 23:35 Mostly Cloudy 26 -3.1 22 -5.3 85 85 E 17 28 30.18 1022 10 16.0934 0 0
11:55 pm 23:55 Mostly Cloudy 26 -3.3 23 -5.2 87 87 ENE 14 22 30.17 1022 10 16.0934 0 0

Powered by AerisWeather